Simultaneous Nadir Overpasses (SNOs) Predictions

Prediction of SNOs between AQUA and NPP Satellite Orbit:

Table of predicted SNOs for the next 14.0 days since TLE Epoch: 11/7/2015
Index Date (AQUA) Time (AQUA) Lat,Lon (AQUA) SZA (AQUA ) Date (NPP) Time (NPP) Lat,Lon (NPP) SZA (NPP ) Distance(km) Time Diff (sec)
1 11/08/2015 20:11:05 -72.15, -72.46 63.60 11/08/2015 20:10:13 -72.15, -72.45 63.55 0.46 52
2 11/08/2015 20:59:49 74.32, 99.64 114.29 11/08/2015 21:00:13 74.33, 99.70 114.25 1.76 24
3 11/11/2015 12:27:16 -72.98, 44.99 63.66 11/11/2015 12:26:51 -72.98, 45.00 63.63 0.30 25
4 11/11/2015 13:16:03 74.96,-142.88 114.39 11/11/2015 13:16:54 74.97,-142.80 114.32 2.36 51
5 11/14/2015 03:55:22 69.37, -12.59 120.43 11/14/2015 03:54:08 69.42, -12.73 120.54 8.24 74
6 11/14/2015
